This is the latest recevied weather packets stored in our database for station/object M0TUM-1. If no packets are shown the sender has not sent any weather packets the latest 10 day(s).
| Time | Temp. | Humidity | Pressure | Rain* | Wind** | Luminosity | Snow |
|---|---|---|---|---|---|---|---|
| 1777567845 | 17.78° C | 31% | 1023.4 hPa | 0 mm | - | 216 W/m² | - |
| 1777567541 | 17.78° C | 32% | 1023.5 hPa | 0 mm | - | 227 W/m² | - |
| 1777567239 | 17.78° C | 31% | 1023.5 hPa | 0 mm | - | 238 W/m² | - |
| 1777566937 | 17.78° C | 31% | 1023.5 hPa | 0 mm | - | 259 W/m² | - |
| 1777566635 | 17.78° C | 31% | 1023.7 hPa | 0 mm | - | 273 W/m² | - |
| 1777566332 | 17.78° C | 32% | 1023.7 hPa | 0 mm | - | 291 W/m² | - |
| 1777566029 | 17.78° C | 31% | 1023.7 hPa | 0 mm | - | 298 W/m² | - |
| 1777565725 | 17.78° C | 31% | 1024 hPa | 0 mm | - | 310 W/m² | - |
| 1777565421 | 18.33° C | 31% | 1024.1 hPa | 0 mm | - | 314 W/m² | - |
| 1777565117 | 17.78° C | 32% | 1024.1 hPa | 0 mm | - | 333 W/m² | - |
| 1777564814 | 17.78° C | 31% | 1024.2 hPa | 0 mm | - | 351 W/m² | - |
| 1777564509 | 17.78° C | 30% | 1024 hPa | 0 mm | - | 357 W/m² | - |
| 1777564204 | 17.78° C | 31% | 1024.3 hPa | 0 mm | - | 366 W/m² | - |
| 1777563901 | 17.22° C | 32% | 1024.1 hPa | 0 mm | - | 363 W/m² | - |
| 1777563597 | 17.78° C | 31% | 1024.2 hPa | 0 mm | - | 382 W/m² | - |
| 1777563296 | 17.22° C | 31% | 1024.1 hPa | 0 mm | - | 410 W/m² | - |
| 1777562993 | 17.78° C | 31% | 1024.3 hPa | 0 mm | - | 419 W/m² | - |
| 1777562689 | 18.33° C | 31% | 1024 hPa | 0 mm | - | 428 W/m² | - |
| 1777562383 | 18.33° C | 30% | 1024.1 hPa | 0 mm | - | 425 W/m² | - |
| 1777562079 | 17.78° C | 31% | 1024 hPa | 0 mm | - | 444 W/m² | - |
| 1777561776 | 18.33° C | 28% | 1024.2 hPa | 0 mm | - | 457 W/m² | - |
| 1777561472 | 18.33° C | 29% | 1024.1 hPa | 0 mm | - | 455 W/m² | - |
| 1777561167 | 17.78° C | 29% | 1024.3 hPa | 0 mm | - | 482 W/m² | - |
| 1777560862 | 18.33° C | 28% | 1024.3 hPa | 0 mm | - | 490 W/m² | - |
| 1777560560 | 18.33° C | 29% | 1024.4 hPa | 0 mm | - | 491 W/m² | - |
* Rain latest hour (hover to see other rain measurements)
** Current wind speed in m/s (hover to see current wind gust speed)